Home   Weather   Reston   Past weeks

Flag for USA Past Weather in Reston, Virginia, USA — Yesterday and Last 2 Weeks

Now
52 °F

Mostly cloudy.


Feels Like: 50 °F
Forecast: 49 / 53 °F
Wind: 6 mph from Northeast

Location: Washington-Dulles International Airport

Current Time: Apr 24, 2017 at 7:48:29 am

Latest Report: Apr 24, 2017 at 6:52 am


Visibility: 10 mi

Pressure: 30.09 "Hg

Humidity: 83%

Dew Point: 47 °F

Location of RestonLocation

Past Weather in Reston — Graph

°F

Reston Temperature Yesterday

Maximum temperature yesterday: 59 °F (at 2:52 pm)
Minimum temperature yesterday: 45 °F (at 6:52 am)
Average temperature yesterday: 53 °F

High & Low Weather Summary for the Past Weeks

 TemperatureHumidityPressure
High85 °F (Apr 11, 3:52 pm)97% (Apr 21, 3:52 am)30.43 "Hg (Apr 21, 3:52 am)
Low33 °F (Apr 9, 6:52 am)18% (Apr 9, 4:52 pm)29.78 "Hg (Apr 21, 6:52 pm)
Average63 °F60%30.13 "Hg
* Reported Apr 9 5:52 am — Apr 24 5:52 am, Reston, Weather by CustomWeather, © 2017

Note: Actual official high and low records may vary slightly from our data, if they occured in-between our weather recording intervals... More about our weather records

Advertising

Reston Weather History for the Previous 24 Hours

Scroll right to see more
 ConditionsComfort  
Time TempWeatherWind HumidityBarometerVisibility
5:52 am
Mon, Apr 24
52 °FLight rain. Mostly cloudy.5 mph86%30.07 "Hg9 mi
4:52 am52 °FLight rain. Overcast.3 mph86%30.06 "Hg9 mi
3:52 am53 °FLight rain. Mostly cloudy.3 mph80%30.06 "Hg9 mi
2:52 am52 °FLight rain. Overcast.3 mph83%30.06 "Hg10 mi
1:52 am54 °FOvercast.No wind74%30.08 "Hg10 mi
12:52 am53 °FOvercast.3 mph74%30.09 "Hg10 mi
11:52 pm
Sun, Apr 23
51 °FOvercast.3 mph83%30.09 "Hg10 mi
10:52 pm54 °FOvercast.No wind69%30.10 "Hg10 mi
9:52 pm54 °FOvercast.6 mph67%30.10 "Hg10 mi
8:52 pm54 °FOvercast.5 mph67%30.09 "Hg10 mi
7:52 pm55 °FOvercast.5 mph64%30.09 "Hg10 mi
6:52 pm56 °FOvercast.3 mph60%30.08 "Hg10 mi
5:52 pm58 °FOvercast.5 mph51%30.08 "Hg10 mi
4:52 pm58 °FOvercast.6 mph56%30.09 "Hg10 mi
3:52 pm58 °FOvercast.7 mph56%30.08 "Hg10 mi
2:52 pm59 °FOvercast.6 mph54%30.09 "Hg10 mi
1:52 pm58 °FBroken clouds.5 mph56%30.11 "Hg10 mi
12:52 pm57 °FBroken clouds.3 mph55%30.13 "Hg10 mi
11:52 am54 °FBroken clouds.No wind57%30.14 "Hg10 mi
10:52 am53 °FPartly sunny.6 mph61%30.13 "Hg10 mi
9:52 am51 °FPartly sunny.8 mph63%30.14 "Hg10 mi
8:52 am50 °FScattered clouds.9 mph66%30.13 "Hg10 mi
7:52 am46 °FBroken clouds.8 mph73%30.12 "Hg10 mi
Weather by CustomWeather, © 2017

See weather overviewHow to use our weather pages